(°C)
(°C)
SI
SI
SSI
SSI
S
S
S
(km/h)
3-8
3-7
2-7
2-6
2-6
1-7
1-7
(mm)
0
0
0
0
0
0
0
(%)
0
0
0
0
0
0
0

Podizanje Sunca

/ -25.8°
sun-icon
UV 1
06:11
18:05
Opadajući mesec (253°)
18:12
15:40

METAR za 64.6°S 40.72°I (ULAA)

Vreme Uslovi Temperatura/
Tačka rose
Vetar Vidljivost Prognoza Oblaci Pritisak Promena Neobrađeno
MVFR 5°C / 5°C variable 2kt >10km - Overcast 1800ft 1024 No Significant change ULAA 262200Z VRB01MPS 9999 OVC018 05/05 Q1024 R08/CLRD70 NOSIG RMK QFE767/1023
MVFR 5°C / 5°C variable 2kt >10km - Overcast 1800ft 1024 No Significant change ULAA 262130Z VRB01MPS 9999 OVC018 05/05 Q1024 R08/CLRD70 NOSIG RMK QFE767/1023
MVFR 5°C / 5°C variable 2kt >10km - Overcast 1800ft 1024 No Significant change ULAA 262100Z VRB01MPS 9999 OVC018 05/05 Q1024 R08/CLRD70 NOSIG RMK QFE767/1022
MVFR 5°C / 5°C variable 0kt >10km - Overcast 1900ft 1023 No Significant change ULAA 262030Z 00000MPS 9999 OVC019 05/05 Q1023 R08/CLRD70 NOSIG RMK QFE766/1022
MVFR 5°C / 5°C variable 0kt >10km - Broken Clouds 1800ft 1023 No Significant change ULAA 262000Z 00000MPS 9999 BKN018 05/05 Q1023 R08/CLRD70 NOSIG RMK QFE766/1022
MVFR 5°C / 4°C variable 2kt >10km - Broken Clouds 1700ft 1022 No Significant change ULAA 261930Z VRB01MPS 9999 BKN017 05/04 Q1022 R08/CLRD70 NOSIG RMK QFE766/1021
MVFR 5°C / 4°C 110º 2kt >10km - Broken Clouds 2000ft 1022 No Significant change ULAA 261900Z 11001MPS 9999 BKN020 05/04 Q1022 R08/CLRD70 NOSIG RMK QFE766/1021
MVFR 4°C / 4°C variable 0kt >10km - Broken Clouds 2000ft 1022 No Significant change ULAA 261830Z 00000MPS 9999 BKN020 04/04 Q1022 R08/CLRD70 NOSIG RMK QFE766/1021
VFR 2°C / 2°C variable 0kt >10km - Scattered Clouds 2000ft 1022 No Significant change ULAA 261800Z 00000MPS 9999 SCT020 02/02 Q1022 R08/CLRD70 NOSIG RMK QFE765/1020
VFR 3°C / 2°C 130º 2kt >10km - Few Clouds 2000ft 1021 No Significant change ULAA 261730Z 13001MPS 9999 FEW020 03/02 Q1021 R08/CLRD70 NOSIG RMK QFE765/1020
VFR 3°C / 2°C variable 0kt >10km - Few Clouds 2000ft 1021 No Significant change ULAA 261700Z 00000MPS 9999 FEW020 03/02 Q1021 R08/CLRD70 NOSIG RMK QFE765/1020
VFR 4°C / 4°C 90º 2kt >10km - Few Clouds 2000ft 1021 No Significant change ULAA 261630Z 09001MPS 9999 FEW020 04/04 Q1021 R08/CLRD70 NOSIG RMK QFE765/1020
VFR 5°C / 4°C variable 2kt >10km - Few Clouds 2000ft 1020 No Significant change ULAA 261600Z VRB01MPS 9999 FEW020 05/04 Q1020 R08/CLRD70 NOSIG RMK QFE764/1019
VFR 6°C / 5°C 100º 2kt >10km - Few Clouds 2000ft 1020 No Significant change ULAA 261530Z 10001MPS 9999 FEW020 06/05 Q1020 R08/CLRD70 NOSIG RMK QFE764/1019
VFR 7°C / 6°C 110º 4kt >10km - Few Clouds 2000ft 1020 No Significant change ULAA 261500Z 11002MPS 9999 FEW020 07/06 Q1020 R08/CLRD70 NOSIG RMK QFE764/1018
VFR 9°C / 6°C 100º 4kt >10km - Few Clouds 2000ft 1019 No Significant change ULAA 261430Z 10002MPS 9999 FEW020 09/06 Q1019 R08/CLRD70 NOSIG RMK QFE763/1018
VFR 11°C / 6°C 90º 4kt >10km - Few Clouds 2000ft 1019 No Significant change ULAA 261400Z 09002MPS 9999 FEW020 11/06 Q1019 R08/CLRD70 NOSIG RMK QFE763/1018
VFR 12°C / 7°C 80º variable 040º to 110º 4kt >10km - Few Clouds 2000ft 1018 No Significant change ULAA 261330Z 08002MPS 040V110 9999 FEW020 12/07 Q1018 R08/CLRD70 NOSIG RMK QFE763/1017
VFR 12°C / 7°C variable 2kt >10km - Few Clouds 2000ft 1018 No Significant change ULAA 261300Z VRB01MPS 9999 FEW020 12/07 Q1018 R08/CLRD70 NOSIG RMK QFE762/1017
VFR 12°C / 7°C variable 2kt >10km - Few Clouds 2000ft 1018 No Significant change ULAA 261230Z VRB01MPS 9999 FEW020 12/07 Q1018 R08/CLRD70 NOSIG RMK QFE762/1016
VFR 12°C / 6°C 70º variable 020º to 130º 4kt >10km - Scattered Clouds 2000ft 1017 No Significant change ULAA 261200Z 07002MPS 020V130 9999 SCT020 12/06 Q1017 R08/CLRD70 NOSIG RMK QFE762/1016
VFR 12°C / 7°C variable 2kt >10km - Scattered Clouds 2000ft 1017 No Significant change ULAA 261130Z VRB01MPS 9999 SCT020 12/07 Q1017 R08/CLRD70 NOSIG RMK QFE762/1016
MVFR 12°C / 7°C variable 2kt >10km - Broken Clouds 1800ft 1017 No Significant change ULAA 261100Z VRB01MPS 9999 BKN018 12/07 Q1017 R08/CLRD70 NOSIG RMK QFE761/1015
MVFR 11°C / 7°C variable 2kt >10km - Broken Clouds 1600ft 1016 No Significant change ULAA 261030Z VRB01MPS 9999 BKN016 11/07 Q1016 R08/CLRD70 NOSIG RMK QFE761/1015

MVFR

5°C / 5°C

[Više]
Vetar variable 2kt
Vidljivost >10km
Prognoza -
Oblaci Overcast 1800ft
Pritisak 1024
Promena No Significant change
Neobrađeno ULAA 262200Z VRB01MPS 9999 OVC018 05/05 Q1024 R08/CLRD70 NOSIG RMK QFE767/1023

MVFR

5°C / 5°C

[Više]
Vetar variable 2kt
Vidljivost >10km
Prognoza -
Oblaci Overcast 1800ft
Pritisak 1024
Promena No Significant change
Neobrađeno ULAA 262130Z VRB01MPS 9999 OVC018 05/05 Q1024 R08/CLRD70 NOSIG RMK QFE767/1023

MVFR

5°C / 5°C

[Više]
Vetar variable 2kt
Vidljivost >10km
Prognoza -
Oblaci Overcast 1800ft
Pritisak 1024
Promena No Significant change
Neobrađeno ULAA 262100Z VRB01MPS 9999 OVC018 05/05 Q1024 R08/CLRD70 NOSIG RMK QFE767/1022

MVFR

5°C / 5°C

[Više]
Vetar variable 0kt
Vidljivost >10km
Prognoza -
Oblaci Overcast 1900ft
Pritisak 1023
Promena No Significant change
Neobrađeno ULAA 262030Z 00000MPS 9999 OVC019 05/05 Q1023 R08/CLRD70 NOSIG RMK QFE766/1022

MVFR

5°C / 5°C

[Više]
Vetar variable 0kt
Vidljivost >10km
Prognoza -
Oblaci Broken Clouds 1800ft
Pritisak 1023
Promena No Significant change
Neobrađeno ULAA 262000Z 00000MPS 9999 BKN018 05/05 Q1023 R08/CLRD70 NOSIG RMK QFE766/1022

MVFR

5°C / 4°C

[Više]
Vetar variable 2kt
Vidljivost >10km
Prognoza -
Oblaci Broken Clouds 1700ft
Pritisak 1022
Promena No Significant change
Neobrađeno ULAA 261930Z VRB01MPS 9999 BKN017 05/04 Q1022 R08/CLRD70 NOSIG RMK QFE766/1021

MVFR

5°C / 4°C

[Više]
Vetar 110º 2kt
Vidljivost >10km
Prognoza -
Oblaci Broken Clouds 2000ft
Pritisak 1022
Promena No Significant change
Neobrađeno ULAA 261900Z 11001MPS 9999 BKN020 05/04 Q1022 R08/CLRD70 NOSIG RMK QFE766/1021

MVFR

4°C / 4°C

[Više]
Vetar variable 0kt
Vidljivost >10km
Prognoza -
Oblaci Broken Clouds 2000ft
Pritisak 1022
Promena No Significant change
Neobrađeno ULAA 261830Z 00000MPS 9999 BKN020 04/04 Q1022 R08/CLRD70 NOSIG RMK QFE766/1021

VFR

2°C / 2°C

[Više]
Vetar variable 0kt
Vidljivost >10km
Prognoza -
Oblaci Scattered Clouds 2000ft
Pritisak 1022
Promena No Significant change
Neobrađeno ULAA 261800Z 00000MPS 9999 SCT020 02/02 Q1022 R08/CLRD70 NOSIG RMK QFE765/1020

VFR

3°C / 2°C

[Više]
Vetar 130º 2kt
Vidljivost >10km
Prognoza -
Oblaci Few Clouds 2000ft
Pritisak 1021
Promena No Significant change
Neobrađeno ULAA 261730Z 13001MPS 9999 FEW020 03/02 Q1021 R08/CLRD70 NOSIG RMK QFE765/1020

VFR

3°C / 2°C

[Više]
Vetar variable 0kt
Vidljivost >10km
Prognoza -
Oblaci Few Clouds 2000ft
Pritisak 1021
Promena No Significant change
Neobrađeno ULAA 261700Z 00000MPS 9999 FEW020 03/02 Q1021 R08/CLRD70 NOSIG RMK QFE765/1020

VFR

4°C / 4°C

[Više]
Vetar 90º 2kt
Vidljivost >10km
Prognoza -
Oblaci Few Clouds 2000ft
Pritisak 1021
Promena No Significant change
Neobrađeno ULAA 261630Z 09001MPS 9999 FEW020 04/04 Q1021 R08/CLRD70 NOSIG RMK QFE765/1020

VFR

5°C / 4°C

[Više]
Vetar variable 2kt
Vidljivost >10km
Prognoza -
Oblaci Few Clouds 2000ft
Pritisak 1020
Promena No Significant change
Neobrađeno ULAA 261600Z VRB01MPS 9999 FEW020 05/04 Q1020 R08/CLRD70 NOSIG RMK QFE764/1019

VFR

6°C / 5°C

[Više]
Vetar 100º 2kt
Vidljivost >10km
Prognoza -
Oblaci Few Clouds 2000ft
Pritisak 1020
Promena No Significant change
Neobrađeno ULAA 261530Z 10001MPS 9999 FEW020 06/05 Q1020 R08/CLRD70 NOSIG RMK QFE764/1019

VFR

7°C / 6°C

[Više]
Vetar 110º 4kt
Vidljivost >10km
Prognoza -
Oblaci Few Clouds 2000ft
Pritisak 1020
Promena No Significant change
Neobrađeno ULAA 261500Z 11002MPS 9999 FEW020 07/06 Q1020 R08/CLRD70 NOSIG RMK QFE764/1018

VFR

9°C / 6°C

[Više]
Vetar 100º 4kt
Vidljivost >10km
Prognoza -
Oblaci Few Clouds 2000ft
Pritisak 1019
Promena No Significant change
Neobrađeno ULAA 261430Z 10002MPS 9999 FEW020 09/06 Q1019 R08/CLRD70 NOSIG RMK QFE763/1018

VFR

11°C / 6°C

[Više]
Vetar 90º 4kt
Vidljivost >10km
Prognoza -
Oblaci Few Clouds 2000ft
Pritisak 1019
Promena No Significant change
Neobrađeno ULAA 261400Z 09002MPS 9999 FEW020 11/06 Q1019 R08/CLRD70 NOSIG RMK QFE763/1018

VFR

12°C / 7°C

[Više]
Vetar 80º variable 040º to 110º 4kt
Vidljivost >10km
Prognoza -
Oblaci Few Clouds 2000ft
Pritisak 1018
Promena No Significant change
Neobrađeno ULAA 261330Z 08002MPS 040V110 9999 FEW020 12/07 Q1018 R08/CLRD70 NOSIG RMK QFE763/1017

VFR

12°C / 7°C

[Više]
Vetar variable 2kt
Vidljivost >10km
Prognoza -
Oblaci Few Clouds 2000ft
Pritisak 1018
Promena No Significant change
Neobrađeno ULAA 261300Z VRB01MPS 9999 FEW020 12/07 Q1018 R08/CLRD70 NOSIG RMK QFE762/1017

VFR

12°C / 7°C

[Više]
Vetar variable 2kt
Vidljivost >10km
Prognoza -
Oblaci Few Clouds 2000ft
Pritisak 1018
Promena No Significant change
Neobrađeno ULAA 261230Z VRB01MPS 9999 FEW020 12/07 Q1018 R08/CLRD70 NOSIG RMK QFE762/1016

VFR

12°C / 6°C

[Više]
Vetar 70º variable 020º to 130º 4kt
Vidljivost >10km
Prognoza -
Oblaci Scattered Clouds 2000ft
Pritisak 1017
Promena No Significant change
Neobrađeno ULAA 261200Z 07002MPS 020V130 9999 SCT020 12/06 Q1017 R08/CLRD70 NOSIG RMK QFE762/1016

VFR

12°C / 7°C

[Više]
Vetar variable 2kt
Vidljivost >10km
Prognoza -
Oblaci Scattered Clouds 2000ft
Pritisak 1017
Promena No Significant change
Neobrađeno ULAA 261130Z VRB01MPS 9999 SCT020 12/07 Q1017 R08/CLRD70 NOSIG RMK QFE762/1016

MVFR

12°C / 7°C

[Više]
Vetar variable 2kt
Vidljivost >10km
Prognoza -
Oblaci Broken Clouds 1800ft
Pritisak 1017
Promena No Significant change
Neobrađeno ULAA 261100Z VRB01MPS 9999 BKN018 12/07 Q1017 R08/CLRD70 NOSIG RMK QFE761/1015

MVFR

11°C / 7°C

[Više]
Vetar variable 2kt
Vidljivost >10km
Prognoza -
Oblaci Broken Clouds 1600ft
Pritisak 1016
Promena No Significant change
Neobrađeno ULAA 261030Z VRB01MPS 9999 BKN016 11/07 Q1016 R08/CLRD70 NOSIG RMK QFE761/1015

TAF za 64.6°S 40.72°I (ULAA)

From till


From till Wind 20º 6kt. Visibility 6000m. Few Clouds 700ft. Broken Clouds 1600ft.
Temporarly from till Wind variable 2kt. Visibility 305.775m. Fog . Broken Clouds 200ft.
From till Wind 340º 6kt. Visibility 10km or more. Broken Clouds 1600ft.

Neobrađeno: TAF ULAA 262000Z 2621/2721 02003MPS 6000 FEW007 BKN016 TEMPO 2621/2704 VRB01MPS 0300 FG BKN002 FM270400 34003MPS 9999 BKN016

Trenutni satelitski snimci i slike kiše za 64.6°S 40.72°I

Marker lokacije postavljen je na 64.6°S 40.72°I. [Više]

Satelitski snimci u realnom vremenu kombinuju vidljivu svetlost tokom dana sa infracrvenim zračenjem tokom noći. Noću slika nije tamna jer infracrveno zračenje može otkriti temperaturne razlike. Nažalost, niski oblaci i magla teško se mogu razlikovati od temperature zemlje tako da mogu biti skoro nevidljivi tokom noći. Meteosat satelitski snimci za Evropu se ažuriraju u realnom vremenu na svakih 5 minuta. Slnimci GOES-16/GOES-17 (Severna i Južna Amerika) and Himawari (Azia) ažuriraju se na svakih 10 minuta.

Autorsko pravo 2021 EUMETSAT / meteoblue. / Autorsko pravo 2021 meteoblue

Radar i padavine kratka prognoza za 64.6°S 40.72°I

Rominjati
Svjetlo
Umjereno
Teška
Vrlo teško
Zdravo

Marker lokacije postavljen je na 64.6°S 40.72°I. Ova animacija prikazuje radar padavina za poslednji sat, kao i 1h prognozu. Пљусак кише или слаб снег може бити невидљив за радар. Интензитет падавина је кодиран у боји, у распону од светло плаве до наранџасте.